Torna al catalogo

TIANMU-1 20

AttivoMeteoSSO
NORAD 58661·PAYLOAD·🇨🇳 China

Lanciato Dec 27, 2023 da Jiuquan Satellite Launch Center

Loading…

Prossimi Passaggi (prossime 24 ore)

TLE

AggiornatoSource: Space-Track

Epoca: Sep 14, 2026, 22:08 UTC

1 58661U 23208B   26257.92259028  .00007955  00000-0  24416-3 0  9996
2 58661  97.4522  15.5269 0006937  15.1983 344.9467 15.33994202151177

Traccia TIANMU-1 20 in tempo reale con AllMySat

Download on the App Store